N1GUJ Weather Reports


Display with metric or nautical units.
time (UTC)temp
F
wind
direction
speed
MPH
gust
MPH
rain 1hr
in
rain 24hr
in
rain mn
in
humidity
%
barometer
mb
20260901152433 73 147 0.0 1.0 0.00 0.00 0.00 61 1016.1
20260901151934 72 147 0.0 0.0 0.00 0.00 0.00 64 1016.1
20260901151434 71 147 0.0 1.0 0.00 0.00 0.00 64 1016.1
20260901150937 70 148 1.0 2.0 0.00 0.00 0.00 63 1016.1
20260901150437 70 262 0.0 4.0 0.00 0.00 0.00 60 1016.0
20260901145934 69 163 0.0 1.0 0.00 0.00 0.00 66 1016.1
20260901145436 68 163 0.0 2.0 0.00 0.00 0.00 65 1016.2
20260901144934 66 163 0.0 2.0 0.00 0.00 0.00 69 1016.0
20260901144433 65 166 0.0 2.0 0.00 0.00 0.00 72 1015.8
20260901143936 65 166 0.0 2.0 0.00 0.00 0.00 70 1015.9
20260901143433 64 166 0.0 2.0 0.00 0.00 0.00 72 1016.0
20260901142936 64 166 0.0 1.0 0.00 0.00 0.00 72 1015.9
20260901142433 63 166 0.0 1.0 0.00 0.00 0.00 73 1016.0
20260901141936 63 166 0.0 2.0 0.00 0.00 0.00 72 1016.0
20260901141436 63 166 0.0 1.0 0.00 0.00 0.00 73 1016.1
20260901140939 63 166 0.0 2.0 0.00 0.00 0.00 75 1016.2
20260901140436 63 166 0.0 0.0 0.00 0.00 0.00 75 1016.2
20260901135933 62 166 0.0 0.0 0.00 0.00 0.00 75 1016.1
20260901135433 62 166 0.0 0.0 0.00 0.00 0.00 75 1016.1
20260901134933 62 166 0.0 2.0 0.00 0.00 0.00 74 1016.1
20260901134436 62 166 0.0 1.0 0.00 0.00 0.00 73 1016.1
20260901133933 62 166 0.0 2.0 0.00 0.00 0.00 72 1016.1
20260901133439 62 166 0.0 0.0 0.00 0.00 0.00 75 1016.2
20260901132933 61 166 0.0 1.0 0.00 0.00 0.00 76 1016.2
20260901132433 61 166 0.0 0.0 0.00 0.00 0.00 76 1016.2
20260901131933 61 166 0.0 0.0 0.00 0.00 0.00 75 1016.2
20260901131433 61 166 0.0 0.0 0.00 0.00 0.00 75 1016.2
20260901130934 61 166 0.0 2.0 0.00 0.00 0.00 75 1016.3
20260901130436 61 333 1.0 2.0 0.00 0.00 0.00 75 1016.5
20260901125936 61 333 0.0 3.0 0.00 0.00 0.00 74 1016.4
20260901125433 61 109 0.0 2.0 0.00 0.00 0.00 76 1016.4
20260901124936 60 113 0.0 1.0 0.00 0.00 0.00 75 1016.2
20260901124433 60 114 2.0 4.0 0.00 0.00 0.00 77 1016.3
20260901123936 60 177 0.0 1.0 0.00 0.00 0.00 76 1016.3
20260901123436 60 177 0.0 0.0 0.00 0.00 0.00 75 1016.3
20260901122933 60 177 0.0 1.0 0.00 0.00 0.00 75 1016.4
20260901122433 60 177 0.0 0.0 0.00 0.00 0.00 77 1016.6
20260901121936 60 177 0.0 1.0 0.00 0.00 0.00 76 1016.7
20260901121436 60 177 0.0 0.0 0.00 0.00 0.00 77 1016.7
20260901120939 60 177 0.0 0.0 0.00 0.00 0.00 77 1016.7
20260901120433 60 177 0.0 1.0 0.00 0.00 0.00 76 1016.6
20260901115933 60 177 0.0 2.0 0.00 0.00 0.00 75 1016.6
20260901115433 60 177 0.0 0.0 0.00 0.00 0.00 74 1016.7
20260901114933 60 177 0.0 3.0 0.00 0.00 0.00 73 1016.7
20260901114433 60 216 0.0 2.0 0.00 0.00 0.00 75 1016.6
20260901113936 60 216 0.0 0.0 0.00 0.00 0.00 76 1016.5
20260901113442 60 216 0.0 0.0 0.00 0.00 0.00 77 1016.5
20260901112936 60 216 0.0 2.0 0.00 0.00 0.00 76 1016.4
20260901112433 60 216 2.0 2.0 0.00 0.00 0.00 77 1016.3
20260901111933 60 168 0.0 3.0 0.00 0.00 0.00 76 1016.1
20260901111433 60 195 1.0 2.0 0.00 0.00 0.00 76 1016.1
20260901110933 59 170 0.0 2.0 0.00 0.00 0.00 77 1016.2
20260901110432 59 170 0.0 0.0 0.00 0.00 0.00 78 1016.2
20260901105935 59 170 0.0 0.0 0.00 0.00 0.00 77 1016.2
20260901105432 59 170 0.0 0.0 0.00 0.00 0.00 77 1016.2
20260901104932 60 170 0.0 0.0 0.00 0.00 0.00 76 1016.1
20260901104433 60 170 0.0 1.0 0.00 0.00 0.00 77 1016.2
20260901103938 60 170 0.0 0.0 0.00 0.00 0.00 77 1016.2
20260901103433 60 170 0.0 0.0 0.00 0.00 0.00 77 1016.2
20260901102942 60 170 0.0 0.0 0.00 0.00 0.00 77 1016.1
20260901102435 60 170 0.0 3.0 0.00 0.00 0.00 76 1015.9
20260901101935 60 170 0.0 1.0 0.00 0.00 0.00 77 1015.9
20260901101432 60 170 1.0 1.0 0.00 0.00 0.00 75 1015.8
20260901100932 60 170 0.0 0.0 0.00 0.00 0.00 77 1015.9
20260901100432 60 170 0.0 1.0 0.00 0.00 0.00 76 1016.0
20260901095936 60 170 0.0 1.0 0.00 0.00 0.00 75 1015.9
20260901095432 60 170 0.0 2.0 0.00 0.00 0.00 75 1016.0
20260901094935 60 170 0.0 0.0 0.00 0.00 0.00 77 1016.2
20260901094432 60 170 0.0 0.0 0.00 0.00 0.00 76 1016.4
20260901093938 60 170 0.0 0.0 0.00 0.00 0.00 76 1016.3
20260901093432 60 170 0.0 0.0 0.00 0.00 0.00 76 1016.2
20260901092932 60 170 0.0 2.0 0.00 0.00 0.00 75 1016.1
20260901092432 60 173 0.0 3.0 0.00 0.00 0.00 74 1016.0
20260901091932 60 173 0.0 4.0 0.00 0.00 0.00 73 1016.0
20260901091432 61 197 0.0 1.0 0.00 0.00 0.00 75 1016.0
20260901090932 61 197 0.0 1.0 0.00 0.00 0.00 74 1016.0
20260901090432 60 197 0.0 2.0 0.00 0.00 0.00 73 1016.0
20260901085941 60 197 0.0 5.0 0.00 0.00 0.00 74 1016.2
20260901085435 60 161 0.0 1.0 0.00 0.00 0.00 75 1016.0
20260901084938 60 161 1.0 3.0 0.00 0.00 0.00 74 1016.0
20260901084432 60 162 0.0 1.0 0.00 0.00 0.00 74 1015.9
20260901083932 60 161 0.0 1.0 0.00 0.00 0.00 75 1015.9
20260901083432 60 161 0.0 1.0 0.00 0.00 0.00 74 1016.1
20260901082932 60 161 0.0 2.0 0.00 0.00 0.00 74 1016.2
20260901082432 60 161 0.0 1.0 0.00 0.00 0.00 77 1016.1
20260901081932 60 162 0.0 2.0 0.00 0.00 0.00 77 1016.1
20260901081432 60 216 0.0 1.0 0.00 0.00 0.00 77 1016.1
20260901080938 60 216 0.0 1.0 0.00 0.00 0.00 78 1016.2
20260901080432 60 216 0.0 0.0 0.00 0.00 0.00 77 1016.2
20260901075932 60 216 0.0 0.0 0.00 0.00 0.00 77 1016.3
20260901075438 60 216 0.0 1.0 0.00 0.00 0.00 77 1016.3
20260901074938 60 216 0.0 2.0 0.00 0.00 0.00 77 1016.2
20260901074435 60 216 0.0 2.0 0.00 0.00 0.00 77 1016.0
20260901073941 60 176 0.0 1.0 0.00 0.00 0.00 77 1016.0
20260901073432 60 176 0.0 3.0 0.00 0.00 0.00 77 1016.1
20260901072935 60 176 0.0 2.0 0.00 0.00 0.00 77 1016.2
20260901072432 60 176 0.0 2.0 0.00 0.00 0.00 77 1016.3
20260901071935 60 210 0.0 1.0 0.00 0.00 0.00 78 1016.3
20260901071432 60 210 0.0 2.0 0.00 0.00 0.00 77 1016.3
20260901070935 60 211 0.0 1.0 0.00 0.00 0.00 77 1016.4
20260901070432 60 210 0.0 1.0 0.00 0.00 0.00 76 1016.3
20260901065931 60 211 0.0 2.0 0.00 0.00 0.00 77 1016.5
20260901065434 60 192 0.0 2.0 0.00 0.00 0.00 77 1016.6
20260901064931 60 192 0.0 0.0 0.00 0.00 0.00 77 1016.6
20260901064437 60 192 0.0 3.0 0.00 0.00 0.00 78 1016.6
20260901063931 60 171 1.0 2.0 0.00 0.00 0.00 78 1016.6
20260901063431 59 171 0.0 1.0 0.00 0.00 0.00 78 1016.6
20260901062932 59 171 0.0 0.0 0.00 0.00 0.00 78 1016.7
20260901062431 59 171 0.0 1.0 0.00 0.00 0.00 78 1016.7
20260901061931 59 171 0.0 2.0 0.00 0.00 0.00 78 1016.7
20260901061431 60 171 0.0 1.0 0.00 0.00 0.00 78 1016.8
20260901060934 60 171 0.0 1.0 0.00 0.00 0.00 78 1016.8
20260901060437 60 172 0.0 1.0 0.00 0.00 0.00 78 1016.9
20260901055934 60 172 0.0 1.0 0.00 0.00 0.00 78 1017.0
20260901055434 60 172 0.0 1.0 0.00 0.00 0.00 78 1017.0
20260901054931 59 172 1.0 1.0 0.00 0.00 0.00 78 1017.0
20260901054437 59 172 0.0 0.0 0.00 0.00 0.00 79 1017.1
20260901053931 59 172 0.0 1.0 0.00 0.00 0.00 79 1017.1
20260901053437 59 172 0.0 0.0 0.00 0.00 0.00 79 1017.0
20260901052932 59 172 0.0 0.0 0.00 0.00 0.00 79 1017.0
20260901052431 60 172 0.0 1.0 0.00 0.00 0.00 79 1017.1
20260901051937 60 172 0.0 0.0 0.00 0.00 0.00 79 1017.2
20260901051437 60 172 0.0 1.0 0.00 0.00 0.00 78 1017.1
20260901050931 60 172 0.0 1.0 0.00 0.00 0.00 78 1017.1
20260901050437 60 172 0.0 1.0 0.00 0.00 0.00 78 1017.2
20260901045934 60 172 0.0 1.0 0.00 0.00 0.00 79 1017.2
20260901045434 60 172 0.0 1.0 0.00 0.00 0.00 78 1017.1
20260901044937 60 173 0.0 1.0 0.00 0.00 0.00 79 1017.1
20260901044434 60 173 0.0 2.0 0.00 0.00 0.00 78 1017.2
20260901043931 60 173 0.0 3.0 0.00 0.00 0.00 78 1017.3
20260901043431 60 173 0.0 0.0 0.00 0.00 0.00 79 1017.3
20260901042931 60 173 0.0 1.0 0.00 0.00 0.00 78 1017.3
20260901042434 60 173 0.0 4.0 0.00 0.00 0.00 79 1017.4
20260901041934 60 173 2.0 4.0 0.00 0.00 0.00 80 1017.4
20260901041437 60 203 1.0 1.0 0.00 0.00 0.00 80 1017.3
20260901040934 59 217 0.0 2.0 0.00 0.00 0.00 80 1017.4
20260901035934 59 135 0.0 2.0 0.00 0.00 0.00 81 1017.2
20260901035434 59 135 0.0 2.0 0.00 0.00 0.00 81 1017.1
20260901034934 59 135 0.0 2.0 0.00 0.00 0.00 81 1017.0
20260901034431 59 135 1.0 1.0 0.00 0.00 0.00 82 1017.0
20260901033937 59 135 0.0 1.0 0.00 0.00 0.00 83 1017.0
20260901033431 59 135 0.0 1.0 0.00 0.00 0.00 83 1017.1
20260901032930 60 135 0.0 0.0 0.00 0.00 0.00 83 1017.0
20260901032437 60 135 0.0 1.0 0.00 0.00 0.00 83 1017.0
20260901031931 60 135 0.0 0.0 0.00 0.00 0.00 83 1017.0
20260901031431 60 135 0.0 3.0 0.00 0.00 0.00 82 1016.9
20260901030931 60 135 0.0 1.0 0.00 0.00 0.00 82 1017.0
20260901030433 60 135 0.0 2.0 0.00 0.00 0.00 81 1017.0
20260901025940 60 135 0.0 1.0 0.00 0.00 0.00 81 1017.1
20260901025433 60 135 0.0 1.0 0.00 0.00 0.00 81 1017.1
20260901024930 60 135 0.0 1.0 0.00 0.00 0.00 81 1017.2
20260901024434 60 135 0.0 3.0 0.00 0.00 0.00 80 1017.2
20260901023933 60 135 0.0 2.0 0.00 0.00 0.00 80 1017.2
20260901023436 60 135 1.0 2.0 0.00 0.00 0.00 80 1017.2
20260901022930 60 135 0.0 2.0 0.00 0.00 0.00 80 1017.2
20260901022433 60 135 0.0 2.0 0.00 0.00 0.00 80 1017.2
20260901021933 60 135 0.0 2.0 0.00 0.00 0.00 81 1017.2
20260901021433 60 135 1.0 2.0 0.00 0.00 0.00 81 1017.2
20260901020940 60 135 0.0 2.0 0.00 0.00 0.00 81 1017.2
20260901020433 60 135 0.0 4.0 0.00 0.00 0.00 82 1017.2
20260901015934 60 232 0.0 0.0 0.00 0.00 0.00 82 1017.2
20260901015430 60 232 0.0 0.0 0.00 0.00 0.00 82 1017.3
20260901014930 60 232 0.0 0.0 0.00 0.00 0.00 82 1017.3
20260901014430 60 232 0.0 0.0 0.00 0.00 0.00 83 1017.3
20260901013930 60 232 0.0 0.0 0.00 0.00 0.00 83 1017.4
20260901013431 60 232 0.0 0.0 0.00 0.00 0.00 84 1017.3
20260901012930 60 232 0.0 0.0 0.00 0.00 0.00 84 1017.2
20260901012434 60 232 0.0 0.0 0.00 0.00 0.00 84 1017.3
20260901011930 59 232 0.0 0.0 0.00 0.00 0.00 85 1017.3
20260901011430 59 232 0.0 0.0 0.00 0.00 0.00 85 1017.3
20260901010936 59 232 0.0 0.0 0.00 0.00 0.00 85 1017.3
20260901010430 59 232 0.0 0.0 0.00 0.00 0.00 84 1017.3
20260901005930 59 232 0.0 0.0 0.00 0.00 0.00 83 1017.2
20260901005430 59 232 0.0 0.0 0.00 0.00 0.00 82 1017.1
20260901004930 60 232 0.0 0.0 0.00 0.00 0.00 81 1017.1
20260901004434 60 232 0.0 0.0 0.00 0.00 0.00 80 1017.2
20260901003930 60 232 0.0 0.0 0.00 0.00 0.00 79 1017.2
20260901003436 61 232 0.0 0.0 0.00 0.00 0.00 79 1017.3
20260901002933 61 232 0.0 0.0 0.00 0.00 0.00 78 1017.2
20260901002433 61 232 0.0 0.0 0.00 0.00 0.00 77 1017.2
20260901001930 62 232 0.0 0.0 0.00 0.00 0.00 77 1017.1
20260901001430 62 232 0.0 0.0 0.00 0.00 0.00 76 1017.2
20260901000930 62 232 0.0 0.0 0.00 0.00 0.00 75 1017.2
20260901000435 63 232 0.0 0.0 0.00 0.00 0.00 76 1017.3
20260831235933 63 232 0.0 0.0 0.00 0.00 0.00 75 1017.2
20260831235430 64 232 0.0 0.0 0.00 0.00 0.00 75 1017.2
20260831234930 64 232 0.0 0.0 0.00 0.00 0.00 75 1017.2
20260831234436 64 232 0.0 0.0 0.00 0.00 0.00 75 1017.2
20260831233933 65 232 0.0 0.0 0.00 0.00 0.00 75 1017.1
20260831233436 65 232 0.0 0.0 0.00 0.00 0.00 75 1017.0
20260831232935 65 232 0.0 0.0 0.00 0.00 0.00 74 1017.0
20260831232436 66 232 0.0 0.0 0.00 0.00 0.00 74 1017.0
20260831231936 66 232 0.0 0.0 0.00 0.00 0.00 73 1017.0
20260831231429 66 232 0.0 0.0 0.00 0.00 0.00 72 1017.1
20260831230930 67 232 0.0 0.0 0.00 0.00 0.00 70 1017.1
20260831230430 67 232 0.0 0.0 0.00 0.00 0.00 69 1017.1
20260831225929 67 232 0.0 0.0 0.00 0.00 0.00 69 1017.2
20260831225430 68 232 0.0 0.0 0.00 0.00 0.00 68 1017.2
20260831224933 68 232 0.0 0.0 0.00 0.00 0.00 70 1017.2
20260831224429 68 232 0.0 1.0 0.00 0.00 0.00 68 1017.1
20260831223932 69 232 0.0 0.0 0.00 0.00 0.00 69 1017.1
20260831223432 69 232 0.0 0.0 0.00 0.00 0.00 67 1017.2
20260831222932 70 232 0.0 0.0 0.00 0.00 0.00 66 1017.2
20260831222432 70 232 0.0 0.0 0.00 0.00 0.00 64 1017.2
20260831221933 71 232 0.0 0.0 0.00 0.00 0.00 63 1017.2
20260831221432 72 232 0.0 0.0 0.00 0.00 0.00 59 1017.2
20260831220932 73 232 0.0 0.0 0.00 0.00 0.00 56 1017.3
20260831220429 74 232 0.0 0.0 0.00 0.00 0.00 57 1017.3
20260831215930 75 232 0.0 0.0 0.00 0.00 0.00 56 1017.3
20260831215429 75 232 0.0 0.0 0.00 0.00 0.00 53 1017.2
20260831214932 76 232 0.0 0.0 0.00 0.00 0.00 49 1017.3
20260831214429 76 232 0.0 0.0 0.00 0.00 0.00 47 1017.3
20260831213929 76 232 0.0 0.0 0.00 0.00 0.00 44 1017.3
20260831213429 77 232 0.0 0.0 0.00 0.00 0.00 48 1017.2
20260831212929 77 232 0.0 1.0 0.00 0.00 0.00 46 1017.3
20260831212435 77 232 0.0 0.0 0.00 0.00 0.00 42 1017.3
20260831211932 77 232 0.0 0.0 0.00 0.00 0.00 43 1017.3
20260831211435 77 232 0.0 0.0 0.00 0.00 0.00 47 1017.3
20260831210930 77 232 0.0 0.0 0.00 0.00 0.00 44 1017.4
20260831210435 77 232 0.0 0.0 0.00 0.00 0.00 43 1017.4
20260831205929 77 232 0.0 2.0 0.00 0.00 0.00 47 1017.5
20260831205432 77 232 0.0 0.0 0.00 0.00 0.00 44 1017.5
20260831204932 77 232 0.0 1.0 0.00 0.00 0.00 47 1017.4
20260831204430 77 232 0.0 2.0 0.00 0.00 0.00 44 1017.4
20260831203935 77 232 0.0 1.0 0.00 0.00 0.00 45 1017.3
20260831203432 77 232 0.0 1.0 0.00 0.00 0.00 41 1017.4
20260831202929 77 232 0.0 2.0 0.00 0.00 0.00 41 1017.4
20260831202432 77 232 0.0 0.0 0.00 0.00 0.00 43 1017.4
20260831201929 77 232 0.0 1.0 0.00 0.00 0.00 41 1017.4
20260831201432 77 232 0.0 1.0 0.00 0.00 0.00 41 1017.4
20260831200929 77 232 0.0 1.0 0.00 0.00 0.00 44 1017.4
20260831200435 77 232 0.0 1.0 0.00 0.00 0.00 42 1017.5
20260831195929 77 232 0.0 1.0 0.00 0.00 0.00 43 1017.6
20260831195435 76 232 0.0 1.0 0.00 0.00 0.00 44 1017.7
20260831194929 76 228 0.0 1.0 0.00 0.00 0.00 51 1017.8
20260831194429 75 228 0.0 2.0 0.00 0.00 0.00 48 1017.9
20260831193935 75 237 0.0 3.0 0.00 0.00 0.00 46 1018.0
20260831193429 75 236 2.0 3.0 0.00 0.00 0.00 46 1018.0
20260831192929 75 236 0.0 3.0 0.00 0.00 0.00 48 1018.2
20260831192429 74 210 0.0 3.0 0.00 0.00 0.00 46 1018.2
20260831191932 74 162 0.0 2.0 0.00 0.00 0.00 48 1018.3
20260831191431 74 162 0.0 1.0 0.00 0.00 0.00 48 1018.2
20260831190929 73 162 0.0 1.0 0.00 0.00 0.00 49 1018.3
20260831190432 73 162 0.0 2.0 0.00 0.00 0.00 50 1018.3
20260831185932 73 162 0.0 2.0 0.00 0.00 0.00 48 1018.3
20260831185429 73 162 0.0 1.0 0.00 0.00 0.00 50 1018.2
20260831184932 73 162 0.0 1.0 0.00 0.00 0.00 51 1018.3
20260831184429 73 162 0.0 1.0 0.00 0.00 0.00 49 1018.4
20260831183928 73 162 0.0 3.0 0.00 0.00 0.00 52 1018.4
20260831183428 73 162 0.0 3.0 0.00 0.00 0.00 53 1018.4
20260831182929 73 162 0.0 3.0 0.00 0.00 0.00 53 1018.4
20260831182428 73 230 1.0 3.0 0.00 0.00 0.00 51 1018.5
20260831181934 73 229 0.0 2.0 0.00 0.00 0.00 52 1018.6
20260831181431 73 229 0.0 4.0 0.00 0.00 0.00 57 1018.7
20260831180928 73 229 0.0 2.0 0.00 0.00 0.00 56 1018.7
20260831180431 73 229 0.0 3.0 0.00 0.00 0.00 53 1018.8
20260831175928 73 228 0.0 1.0 0.00 0.00 0.00 60 1018.8
20260831175428 73 228 0.0 2.0 0.00 0.00 0.00 61 1018.8
20260831174931 72 228 0.0 1.0 0.00 0.00 0.00 60 1018.8
20260831174431 72 228 0.0 3.0 0.00 0.00 0.00 58 1018.8
20260831173934 72 219 0.0 2.0 0.00 0.00 0.00 65 1018.8
20260831173431 72 219 0.0 2.0 0.00 0.00 0.00 60 1018.8
20260831172928 72 219 0.0 2.0 0.00 0.00 0.00 64 1018.8
20260831172429 72 219 1.0 2.0 0.00 0.00 0.00 63 1018.8
20260831171928 71 219 0.0 0.0 0.00 0.00 0.00 63 1018.8
20260831171434 72 219 0.0 1.0 0.00 0.00 0.00 63 1018.8
20260831170928 72 219 0.0 3.0 0.00 0.00 0.00 65 1018.9
20260831170431 71 218 0.0 2.0 0.00 0.00 0.00 64 1018.8
20260831165931 71 218 0.0 2.0 0.00 0.00 0.00 67 1019.0
20260831165431 71 226 0.0 1.0 0.00 0.00 0.00 67 1019.0
20260831164928 71 226 0.0 2.0 0.00 0.00 0.00 66 1019.1
20260831164428 70 226 0.0 2.0 0.00 0.00 0.00 69 1019.2
20260831163931 70 226 1.0 3.0 0.00 0.00 0.00 70 1019.2
20260831163428 71 215 1.0 4.0 0.00 0.00 0.00 65 1019.2
20260831162931 71 235 0.0 2.0 0.00 0.00 0.00 66 1019.1
20260831162428 71 235 0.0 2.0 0.00 0.00 0.00 68 1019.3
20260831161934 70 237 1.0 1.0 0.00 0.00 0.00 69 1019.3
20260831161428 70 237 0.0 5.0 0.00 0.00 0.00 68 1019.4
20260831160928 71 197 0.0 1.0 0.00 0.00 0.00 67 1019.5
20260831160428 71 197 1.0 4.0 0.00 0.00 0.00 68 1019.5
20260831155934 71 199 0.0 3.0 0.00 0.00 0.00 68 1019.6
20260831155428 71 197 0.0 3.0 0.00 0.00 0.00 65 1019.5
20260831154928 71 232 0.0 1.0 0.00 0.00 0.00 67 1019.5
20260831154428 71 232 0.0 2.0 0.00 0.00 0.00 68 1019.5
20260831153931 71 232 0.0 4.0 0.00 0.00 0.00 65 1019.5
20260831153428 72 232 0.0 2.0 0.00 0.00 0.00 66 1019.5
20260831152934 72 232 0.0 1.0 0.00 0.00 0.00 68 1019.5